GFSFLT1_850_thetae_324.txt.gz
Theta_e
311 312 311 312 311 310 310 311 311 311 311 302 300 300 301 302 304 307 313 314 315 315 314 315 315 315 315 316 316 316 317 318 319
305 308 309 308 310 311 310 311 312 311 310 302 299 298 299 299 301 302 308 313 313 313 313 313 313 314 314 314 315 316 316 317 316
300 300 301 302 306 310 310 310 310 310 306 300 298 298 297 297 298 300 307 311 312 312 312 312 312 313 314 314 315 314 315 315 314
300 300 300 301 304 307 306 304 304 307 302 299 298 297 297 297 297 300 309 311 311 311 311 311 312 312 313 312 313 313 313 313 313
301 300 300 300 302 302 302 301 301 300 300 299 298 297 297 297 297 300 308 310 310 310 310 310 311 310 310 311 312 312 311 312 312
301 300 300 300 300 301 301 301 301 301 300 299 299 298 297 297 297 301 306 309 310 310 309 309 309 310 310 310 310 311 311 312 312
300 300 300 300 300 301 301 301 301 301 301 300 299 299 298 297 297 298 305 307 309 308 308 308 309 309 309 309 310 309 308 310 311
300 300 300 300 300 300 301 301 301 301 301 301 300 299 299 298 297 297 297 302 306 308 307 308 307 308 308 309 309 308 309 309 309
300 300 299 299 300 299 300 300 301 301 301 301 300 300 299 299 298 297 297 297 304 306 307 308 308 307 308 307 308 308 308 308 308
299 299 299 299 299 299 299 300 300 300 300 300 300 300 300 300 299 299 298 297 297 300 305 306 306 308 307 308 307 307 307 307 308
299 299 299 299 299 299 299 299 299 300 300 300 300 300 300 300 300 299 299 298 298 297 298 304 304 305 306 306 306 306 306 307 307
299 299 299 299 299 299 299 299 299 299 299 299 300 299 299 300 300 300 299 299 298 298 297 298 301 303 305 306 305 306 306 305 307
299 299 299 299 299 299 299 299 298 299 299 299 299 299 299 299 300 301 300 299 299 298 298 298 297 298 303 304 304 305 304 305 306
300 299 299 299 299 298 298 298 298 298 299 299 299 299 299 299 299 300 300 299 299 298 298 297 297 297 298 301 302 303 303 303 306
301 300 299 299 299 299 298 298 298 298 298 298 298 299 299 299 299 300 300 300 299 299 298 297 297 297 297 296 297 301 301 303 304
301 301 300 300 300 299 298 298 298 298 298 298 298 298 298 299 299 300 300 299 299 299 298 297 297 297 297 296 295 296 296 301 302
302 301 301 300 300 300 299 299 298 298 298 298 298 298 298 299 299 299 299 299 299 299 298 298 297 297 297 296 295 296 296 297 301
303 303 302 301 301 300 300 299 299 298 298 298 298 298 297 298 298 298 298 298 298 298 298 297 297 296 296 297 296 295 296 296 298
304 304 303 303 302 301 301 300 299 299 298 298 298 298 297 297 297 298 298 298 297 297 297 297 297 296 296 296 296 295 295 296 295
305 305 305 304 303 303 302 301 300 300 299 298 298 298 298 297 298 297 297 297 297 297 297 297 297 296 296 297 296 295 294 296 296

GFSFLT1_850_thetae_327.txt.gz
Theta_e
314 314 312 312 312 311 313 313 313 312 305 300 298 299 300 303 305 306 313 315 315 315 314 315 315 315 317 315 318 320 319 318 318
309 310 311 311 312 312 312 312 312 308 301 299 298 298 298 298 300 304 309 313 313 313 314 314 314 315 316 317 315 318 317 317 316
300 300 302 306 311 311 307 309 309 303 300 299 298 297 297 297 299 304 310 312 313 313 313 313 312 315 314 315 316 315 315 315 314
300 300 301 302 308 307 306 302 301 302 300 299 299 298 297 297 299 307 311 311 312 312 312 312 312 312 313 312 313 312 312 314 315
300 300 300 301 301 301 302 301 301 300 300 299 299 298 298 298 298 303 310 309 311 311 311 310 311 312 312 312 312 312 312 315 311
300 300 300 300 300 300 301 301 301 301 300 300 300 299 298 297 297 300 308 310 310 311 310 310 310 311 311 311 311 310 310 311 313
300 300 300 300 300 300 301 301 301 301 301 300 300 299 299 298 297 298 300 307 310 310 309 309 309 310 310 310 310 310 310 311 311
300 300 300 300 300 300 300 300 301 301 301 300 300 300 299 299 298 297 297 301 307 309 308 309 309 309 310 309 309 309 310 309 310
300 300 300 300 300 300 300 300 300 300 300 300 300 300 300 299 299 298 298 297 304 307 308 308 308 308 308 308 308 308 309 308 308
300 299 299 299 299 299 299 299 300 300 300 300 300 300 300 300 300 299 299 298 298 300 306 307 306 308 308 307 307 307 307 307 307
300 299 299 299 299 299 299 299 299 299 299 300 300 300 300 300 300 300 299 299 298 298 301 305 305 306 307 307 306 305 306 306 306
300 299 299 299 299 299 299 299 299 299 299 299 299 299 299 299 300 300 300 299 299 298 298 298 299 301 305 306 306 305 306 306 306
300 300 299 299 299 299 298 298 298 298 298 299 299 299 299 299 299 300 301 300 299 299 298 298 298 297 301 304 304 305 305 306 306
301 301 300 299 299 299 299 298 298 298 298 298 299 299 299 299 299 299 300 300 300 299 299 298 298 298 297 298 300 303 304 305 306
301 301 301 300 300 300 299 299 298 298 298 298 298 298 299 299 299 299 299 300 300 299 299 298 297 297 297 297 296 297 301 303 305
302 302 301 301 300 300 300 299 299 299 298 298 298 298 299 299 299 299 300 300 300 299 299 298 298 297 297 297 297 296 296 298 303
304 304 303 302 301 301 300 300 300 299 299 298 298 298 299 298 299 299 299 299 299 299 299 298 298 297 297 297 297 297 295 296 300
305 305 304 304 303 302 301 301 300 300 299 299 298 298 298 298 298 298 298 298 298 298 298 298 297 297 297 297 297 297 296 295 296
306 305 305 305 304 304 303 302 301 300 300 299 299 298 298 298 298 298 298 298 298 297 297 297 297 297 297 297 297 297 297 295 295
307 306 306 306 305 305 304 303 302 302 301 300 300 299 298 298 298 298 298 298 298 297 297 297 297 297 297 297 297 297 297 297 295

GFSFLT1_850_thetae_333.txt.gz
Theta_e
314 314 314 315 314 314 314 313 305 301 301 300 298 298 302 311 312 315 315 315 316 318 318 320 318 320 321 318 319 319 318 320 321
304 304 307 312 309 310 311 312 304 302 300 300 299 298 305 310 313 315 314 316 316 317 317 316 317 317 317 317 318 319 318 320 318
301 302 303 308 304 304 302 302 302 301 301 300 299 301 308 310 312 314 314 313 318 315 315 315 317 316 316 316 316 317 318 318 320
300 300 302 302 302 302 302 301 302 301 301 301 299 300 306 309 311 313 313 312 314 314 314 313 316 316 315 313 316 315 316 315 316
300 302 300 300 300 301 301 301 301 302 301 301 301 301 305 308 309 312 311 312 312 312 312 312 313 313 314 315 315 315 314 314 315
301 301 300 300 300 300 301 301 301 301 302 301 301 302 301 305 306 308 307 312 312 311 311 311 312 312 313 312 312 312 313 313 312
300 301 300 300 300 300 300 301 301 302 304 304 302 302 301 302 303 304 299 303 311 312 311 310 310 311 311 312 311 311 313 311 312
302 302 302 301 300 302 301 301 303 302 301 303 303 301 302 302 302 302 300 300 300 307 311 311 310 311 311 310 310 311 311 310 311
301 301 301 300 301 300 300 300 300 301 303 303 303 303 303 302 302 302 301 301 300 300 302 307 307 310 310 309 309 310 310 310 310
301 301 301 300 300 300 300 300 300 301 303 303 304 303 303 303 302 301 301 301 301 301 300 300 301 302 309 309 309 309 309 308 309
302 302 301 300 300 300 300 300 299 300 301 302 302 302 302 302 301 301 301 301 301 301 300 300 300 299 300 305 308 307 306 308 308
302 301 301 301 300 300 300 300 300 300 300 301 302 302 301 301 302 302 301 301 301 301 300 300 300 300 299 300 301 305 306 307 308
301 301 301 301 301 300 300 300 300 300 301 301 302 303 302 302 302 302 301 301 300 301 301 300 299 299 299 299 300 301 303 306 306
302 302 302 302 301 301 301 301 300 300 300 301 302 301 301 301 302 302 301 301 300 300 301 300 300 300 299 298 300 303 303 306 306
304 304 304 303 302 302 302 301 301 301 301 301 301 300 301 301 301 301 301 301 301 300 300 301 300 300 299 299 298 299 301 303 305
306 305 305 305 304 304 303 302 302 302 302 303 302 304 304 304 303 302 300 300 300 300 300 300 300 300 299 299 298 298 298 300 305
307 307 306 306 305 305 305 304 303 303 302 303 303 305 305 305 304 302 300 300 300 301 300 300 300 299 299 299 299 298 298 298 300
308 308 307 307 307 306 306 305 305 304 304 304 303 305 307 306 304 303 302 301 299 300 300 299 299 299 298 298 299 298 298 298 298
310 309 309 308 307 307 307 306 306 305 305 304 304 304 303 304 304 305 304 304 303 301 299 299 298 298 298 298 298 298 298 298 298
311 310 310 309 308 308 307 307 306 305 305 305 305 305 305 304 303 303 303 304 304 304 303 301 299 299 298 298 298 297 297 297 297

GFSFLT1_850_thetae_336.txt.gz
Theta_e
306 309 315 309 310 313 311 303 302 302 301 300 299 306 311 312 315 315 315 316 320 318 319 318 318 318 318 318 317 318 322 320 320
302 303 306 307 304 303 303 303 302 302 302 301 300 306 310 312 312 313 314 317 316 317 317 316 317 316 317 318 319 318 318 322 319
301 302 302 302 302 302 302 302 302 302 302 301 301 307 309 311 312 313 311 315 316 315 315 316 316 315 314 316 316 317 317 317 317
301 301 301 301 301 301 302 302 302 302 302 301 301 304 305 308 312 311 307 314 314 314 313 314 315 315 317 315 314 316 316 316 315
301 301 300 300 301 301 301 302 302 302 302 302 302 302 303 305 309 307 304 313 313 312 312 313 313 314 315 314 314 315 315 315 315
302 301 300 300 301 301 301 301 301 302 302 302 302 302 302 303 304 303 301 303 312 312 312 311 312 313 313 313 313 314 313 314 314
301 301 301 301 301 301 301 301 301 302 302 302 302 302 302 302 302 303 301 300 302 309 308 310 311 312 312 313 311 312 312 313 313
302 302 302 301 301 301 301 301 301 301 301 302 302 302 302 302 302 302 302 301 300 301 305 307 308 310 311 311 310 311 312 311 311
301 301 301 301 301 300 300 301 300 301 301 302 302 302 302 302 302 302 301 301 301 300 300 304 304 306 310 309 309 310 311 309 309
301 301 301 301 301 301 301 300 300 300 300 301 301 302 302 303 302 302 301 301 301 301 301 300 301 302 306 310 309 308 308 308 309
302 302 302 302 301 301 301 301 300 300 300 300 301 301 301 302 302 302 301 301 301 301 301 300 300 300 300 301 306 309 307 306 308
302 302 302 302 302 301 301 301 301 301 301 301 301 301 302 302 301 301 302 301 301 301 301 301 300 300 300 300 300 300 303 307 308
303 302 302 302 302 302 302 301 301 301 301 301 301 301 302 302 302 302 302 301 301 300 300 301 301 300 300 300 299 300 300 300 305
304 304 304 303 303 303 303 302 302 302 302 301 301 302 301 301 301 301 302 302 301 301 300 300 301 301 300 300 299 299 300 301 301
305 305 305 305 305 305 305 304 304 303 303 302 302 302 302 303 303 303 302 301 301 300 300 300 300 300 300 300 300 299 300 302 305
307 307 307 307 306 306 306 306 305 305 304 303 304 304 304 305 305 304 304 302 301 300 300 300 300 300 300 300 300 299 299 300 300
309 309 308 308 307 307 307 306 306 306 305 304 304 304 305 305 306 305 305 304 302 301 300 300 300 300 300 299 299 299 299 298 298
310 310 309 309 308 308 307 307 306 306 306 305 304 304 305 305 305 304 304 304 304 303 303 301 300 300 299 299 299 298 298 298 298
311 311 310 310 309 309 309 307 307 306 306 306 305 305 305 305 304 304 304 304 304 303 304 304 303 301 300 299 299 298 298 298 298
311 311 311 311 310 309 309 308 308 307 306 306 306 305 305 305 305 305 306 305 305 304 304 304 303 303 303 302 300 299 299 298 298

GFSFLT1_850_thetae_342.txt.gz
Theta_e
309 310 306 305 303 304 303 303 302 301 303 308 312 315 312 308 313 314 314 318 319 319 318 318 318 319 319 322 319 321 321 323 322
302 304 303 302 302 302 302 302 302 302 302 305 309 312 311 311 309 308 311 317 316 317 317 319 320 315 317 318 319 319 318 320 321
302 302 301 301 302 302 302 302 302 302 302 303 305 308 309 308 307 305 309 316 315 316 316 317 318 317 316 316 318 318 316 316 318
302 302 302 301 301 302 302 302 302 302 302 302 302 305 305 305 305 302 305 313 314 314 313 314 315 316 317 316 316 316 317 315 314
302 302 302 302 301 301 302 302 302 302 302 302 302 302 302 303 303 303 302 309 314 313 311 311 314 315 315 314 314 316 315 316 315
303 302 302 301 301 301 301 302 302 301 302 302 302 302 302 302 302 302 302 300 304 307 304 305 311 314 313 314 312 314 314 313 314
303 303 302 302 302 302 301 301 301 301 301 302 302 302 302 302 302 302 302 302 301 301 304 303 304 307 311 311 312 312 313 312 312
303 303 302 302 302 302 302 301 301 301 301 301 302 302 302 302 302 302 301 301 301 301 301 301 302 301 308 307 308 311 311 311 311
302 302 302 302 302 302 302 301 301 301 301 301 301 301 301 301 301 301 301 301 301 301 301 301 301 301 301 309 309 307 309 310 310
302 302 303 303 302 302 302 302 301 301 301 301 301 301 301 301 302 302 301 301 301 301 301 301 301 301 301 302 306 310 310 307 308
303 303 303 303 303 303 303 302 302 302 302 302 302 302 302 302 302 302 302 302 301 301 301 300 300 301 302 303 304 302 304 308 308
304 304 304 304 304 304 304 304 304 303 303 303 303 303 302 302 302 302 302 302 302 302 301 301 300 300 300 301 305 307 305 307 307
305 306 305 305 305 306 306 306 306 306 305 306 306 306 305 305 304 303 303 303 302 302 302 302 301 301 300 303 302 302 303 303 308
307 307 307 307 307 307 307 307 307 307 307 307 308 308 308 307 307 306 305 305 304 304 303 302 301 301 301 301 304 307 307 308 307
308 308 308 308 308 308 307 307 307 307 307 308 308 309 309 309 308 307 307 306 305 305 304 304 303 301 301 301 300 303 308 310 310
310 310 310 309 309 309 308 308 308 308 307 307 309 309 309 308 308 308 307 307 306 306 305 305 304 304 303 302 301 300 301 309 311
311 311 310 310 310 309 309 308 308 308 307 306 307 308 309 308 308 308 307 307 307 306 306 305 305 305 304 304 303 302 301 300 301
311 311 311 311 310 310 309 309 308 308 308 307 306 307 306 307 308 308 307 307 306 306 306 306 305 305 305 305 305 304 303 303 302
311 311 311 311 311 311 310 310 309 309 309 308 308 307 306 306 306 307 307 307 307 306 306 306 306 306 305 305 305 305 304 304 303
311 311 311 311 311 311 311 311 310 310 309 309 308 307 307 307 306 306 308 308 308 307 307 307 307 307 306 305 305 305 304 304 303

GFSFLT1_850_thetae_345.txt.gz
Theta_e
311 310 306 306 303 306 304 305 303 304 310 311 313 309 308 309 308 310 316 317 318 321 319 322 316 318 319 321 320 320 321 322 322
302 303 302 302 302 302 302 302 302 302 304 306 307 307 307 306 305 307 313 316 317 317 318 319 319 317 317 318 318 318 318 319 321
302 301 301 301 301 302 302 302 302 302 302 303 304 304 305 305 303 304 309 314 315 315 315 315 316 318 317 317 318 317 317 317 317
301 301 301 301 301 301 301 302 302 302 302 302 302 302 303 303 303 302 303 312 314 312 311 314 314 316 316 315 316 317 317 316 316
301 301 301 301 301 301 301 301 302 302 302 302 302 302 302 302 302 302 302 301 313 311 305 305 313 314 313 314 314 316 315 315 315
302 302 301 301 301 301 301 301 301 301 301 302 302 302 302 302 302 302 302 302 301 303 302 302 304 310 314 312 312 313 314 313 313
302 302 302 302 301 301 301 301 301 301 301 302 302 302 302 302 302 302 302 301 301 301 301 301 302 303 309 310 310 312 312 312 312
302 302 302 302 302 302 302 301 301 301 301 301 301 302 302 302 302 302 301 301 301 301 301 301 301 301 301 306 304 306 309 309 310
303 303 303 303 303 302 302 302 302 302 302 302 302 302 302 302 302 302 302 301 301 301 301 301 301 301 302 302 307 308 306 308 307
303 303 303 303 303 303 303 303 302 302 302 302 302 302 302 302 302 302 302 302 302 301 301 301 301 302 304 303 303 305 308 309 307
303 303 303 303 304 304 304 304 304 304 304 303 303 303 303 303 303 303 303 302 302 302 301 301 302 304 304 306 308 309 309 309 309
304 305 305 304 304 304 305 305 305 306 306 306 306 306 306 306 305 304 304 303 303 302 302 302 302 303 306 307 307 308 309 311 311
305 306 306 306 306 306 306 306 307 307 307 308 308 308 308 308 307 307 306 304 304 304 303 302 302 302 302 305 309 310 310 309 310
307 307 307 307 307 307 307 307 308 308 308 308 309 308 308 308 308 307 307 306 306 305 304 304 303 302 302 303 307 310 312 312 312
308 308 308 308 308 308 308 308 308 308 308 309 310 310 309 309 308 308 307 307 306 305 305 305 304 304 303 303 304 307 310 312 312
309 310 310 309 310 309 309 309 308 308 308 309 310 310 310 309 308 308 308 307 307 306 306 306 305 305 304 304 304 303 306 309 311
311 311 310 310 310 310 310 309 309 309 308 307 308 309 309 308 309 308 308 308 307 307 306 306 306 306 305 305 305 304 304 303 303
311 311 311 311 311 311 310 310 310 309 309 308 307 308 307 307 309 308 308 308 307 307 307 307 306 306 306 306 305 305 305 304 304
311 311 311 311 311 311 311 311 310 310 310 309 309 308 307 307 307 308 308 308 307 308 308 307 307 307 307 307 306 306 305 305 304
311 311 311 312 312 312 312 311 311 311 310 310 309 308 308 307 307 307 308 308 308 308 308 308 307 307 307 307 306 306 305 305 305

GFSFLT1_850_thetae_348.txt.gz
Theta_e
316 312 311 309 305 309 304 304 304 306 311 313 312 308 306 305 306 311 315 316 320 320 320 321 317 317 318 319 319 319 320 322 322
304 304 304 304 302 302 303 303 303 303 304 305 305 305 305 303 304 307 312 316 317 318 317 318 320 318 318 319 318 317 317 318 320
301 301 301 301 301 301 301 302 302 302 302 303 303 303 303 303 303 304 309 315 315 315 315 315 316 318 317 316 318 317 318 317 317
301 301 301 300 301 301 301 301 302 302 302 302 302 302 302 302 302 302 302 312 315 313 308 313 315 316 317 314 317 317 316 316 315
301 301 301 301 301 301 301 301 301 302 302 302 302 302 302 302 302 302 302 301 305 309 303 303 311 315 314 314 313 316 315 313 314
302 302 301 301 301 301 301 301 302 302 302 302 302 302 302 302 302 302 302 301 301 301 304 302 304 306 310 309 311 312 314 312 312
302 302 302 302 301 301 301 302 302 301 301 301 302 302 302 302 302 302 301 301 301 301 301 301 301 302 304 309 309 308 311 312 311
302 302 302 302 302 302 302 302 302 302 302 302 302 302 302 302 302 302 302 301 301 301 302 301 301 302 303 303 310 310 309 310 311
302 302 302 302 303 303 303 302 302 302 302 302 302 302 302 302 302 302 302 302 302 301 302 303 303 303 305 305 304 307 311 312 310
303 303 303 303 303 303 304 304 304 304 304 304 304 304 303 303 303 303 303 303 302 302 302 304 306 307 308 309 310 310 310 310 311
304 304 304 304 304 305 305 306 306 307 307 306 306 306 306 306 306 305 304 303 303 303 302 302 304 306 308 308 309 312 313 312 311
305 305 305 306 306 306 307 307 307 307 308 308 308 308 308 308 308 308 307 306 304 304 303 303 302 303 306 308 310 311 312 313 312
305 306 306 307 307 307 307 307 307 307 308 309 309 309 309 309 308 308 307 307 306 305 304 304 304 303 303 308 310 311 313 313 313
306 307 307 308 308 308 308 308 309 309 309 309 310 310 310 309 308 308 309 308 307 306 305 305 305 304 304 303 304 310 312 313 313
308 308 308 309 309 309 309 309 309 309 309 310 311 311 309 309 308 309 308 307 307 307 306 306 306 306 305 305 305 304 306 310 311
309 309 310 310 310 310 309 309 309 310 309 310 311 311 310 309 308 309 308 308 307 307 307 307 307 306 306 306 305 305 305 305 306
310 310 310 310 310 310 310 310 310 310 310 309 309 310 310 308 309 309 308 308 308 308 308 307 307 307 307 307 306 306 305 305 305
311 311 311 311 311 311 311 311 311 311 311 310 309 308 308 308 309 309 308 308 308 308 308 308 307 307 307 307 307 306 306 306 305
311 311 311 311 311 312 311 311 311 311 311 311 310 309 308 308 308 308 309 309 308 308 308 308 308 308 307 307 307 306 306 306 305
310 311 311 312 312 313 313 312 312 311 311 311 310 310 309 309 308 308 309 309 309 309 309 309 309 308 308 307 307 306 306 306 305